Location: *
(43.9905°S, 176.4941°W)
Time: 20:01:50
(UTC+00:00)

Cosmos 1607 - Pass Details

Date: 08 December 2019
Orbit: 925 x 977 km, 65.0° (Epoch: 28 January)

Event Time Altitude Azimuth Distance (km) Brightness Sun altitude
Rises 11:32:03 0° 213° (SSW) 3,684 7.9 -23.3°
Reaches altitude 10° 11:34:41 10° 210° (SSW) 2,725 7.2 -23.3°
Maximum altitude 11:41:01 62° 129° (SE) 1,074 4.3 -23.3°
Enters shadow 11:44:30 27° 56° (NE) 1,745 5.0 -23.3°
